Location: ???????
(55.4362°N, 38.1183°E)
Time: 13:26:33
(UTC+00:00)

Cosmos 1536 Rocket - Visible Passes

Search period start: 22 October 2021 00:00
Search period end: 01 November 2021 00:00
Orbit: 604 x 633 km, 82.5° (Epoch: 21 October)

Date Brightness Start Highest point End Pass type
(mag) Time Alt. Az. Time Alt. Az. Time Alt. Az.
22 Oct 6.4 02:22:42 10° SE 02:26:02 21° E 02:29:22 10° NE visible
22 Oct 6.8 15:39:06 10° NW 15:41:39 15° W 15:44:10 10° WSW visible
23 Oct 5.5 02:39:06 10° SSE 02:43:03 34° E 02:47:00 10° NNE visible
24 Oct 4.4 02:55:54 10° S 03:00:11 55° E 03:04:28 10° NNE visible
24 Oct 5.4 14:34:43 10° NNW 14:38:43 37° W 14:42:43 10° SSW visible
25 Oct 6.8 01:37:54 10° ESE 01:40:12 14° E 01:42:28 10° NE visible
25 Oct 3.6 03:12:59 10° S 03:17:22 90° SE 03:21:47 10° NNE visible
25 Oct 6.3 14:52:19 10° NW 14:55:47 23° W 14:59:13 10° SW visible
26 Oct 6.2 01:53:46 10° SE 01:57:08 22° E 02:00:30 10° NE visible
26 Oct 3.6 03:30:21 10° SSW 03:34:40 56° WNW 03:38:59 10° N visible
26 Oct 6.7 15:10:17 10° NW 15:12:44 15° W 15:15:11 10° WSW visible
27 Oct 5.3 02:10:12 10° SSE 02:14:11 35° E 02:18:08 10° NNE visible
28 Oct 4.2 02:27:01 10° S 02:31:18 57° E 02:35:34 10° NNE visible
29 Oct 6.6 01:08:56 10° ESE 01:11:17 14° E 01:13:38 10° NE visible
29 Oct 3.5 02:44:07 10° S 02:48:30 88° WNW 02:52:53 10° NNE visible
30 Oct 6.0 01:24:50 10° SE 01:28:14 23° E 01:31:38 10° NE visible
30 Oct 3.6 03:01:31 10° SSW 03:05:47 54° WNW 03:10:05 10° N visible
30 Oct 6.6 14:41:28 10° NW 14:43:49 14° W 14:46:11 10° WSW visible
31 Oct 5.1 01:41:18 10° SSE 01:45:17 36° E 01:49:16 10° NNE visible
31 Oct 4.2 03:19:12 10° SW 03:23:11 34° WNW 03:27:10 10° N visible
